Regional Weather Roundup
Issued by NWS

Home | Current Version | Previous Version | Text Only | Print | Product List | Glossary Off
Versions: 1 2 3 4 5 6 7 8 9 10 11 12 13 14 15 16 17 18 19 20 21 22 23 24 25 26 27 28 29 30 31 32 33 34 35 36 37 38 39 40 41 42 43 44 45 46 47 48 49 50

000
ASUS43 KLSX 030007
RWRMO

WEATHER SUMMARY FOR MISSOURI
NATIONAL WEATHER SERVICE SPRINGFIELD MO
700 PM CDT SAT MAY 02 2015

NOTE: "FAIR" INDICATES FEW OR NO CLOUDS BELOW 12,000 FEET WITH NO
       SIGNIFICANT WEATHER AND/OR OBSTRUCTIONS TO VISIBILITY.
       CURRENT SKY AND/OR WEATHER CONDITIONS ARE NOT AVAILABLE FOR
       CHILLICOTHE AND FARMINGTON.

MOZ001>031-035>038-043-044-053-054-030100-
...NORTHERN AND WESTERN MISSOURI...

CITY           SKY/WX    TMP DP  RH WIND       PRES   REMARKS
KANSAS CTY INT MOSUNNY   73  53  49 S16       29.89F
6HR MIN TEMP:  69; 6HR MAX TEMP:  75; 6HR PCP: TRACE;

KANSAS C DTWN  SUNNY     75  54  47 S6        29.89F
6HR MIN TEMP:  72; 6HR MAX TEMP:  77;

LEE`S SUMMIT   MOSUNNY   73  52  47 SE6       29.92F
6HR MIN TEMP:  68; 6HR MAX TEMP:  74;

ST JOSEPH      SUNNY     73  55  53 S16       29.87F
6HR MIN TEMP:  64; 6HR MAX TEMP:  75;

CHILLICOTHE      N/A     67  57  70 SE7       29.93F
6HR MIN TEMP:  59; 6HR MAX TEMP:  67; 6HR PCP:  0.03;

KIRKSVILLE     CLOUDY    62  58  86 SE8       29.96F
6HR MIN TEMP:  58; 6HR MAX TEMP:  66; 6HR PCP:  0.18;


$$
MOZ066>068-077>081-088>096-101>105-030100-
...SOUTHWEST MISSOURI...

CITY           SKY/WX    TMP DP  RH WIND       PRES   REMARKS
SPRINGFIELD    PTSUNNY   72  50  45 SW9       29.97F
6HR MIN TEMP:  72; 6HR MAX TEMP:  77;

JOPLIN         SUNNY     75  52  44 S14       29.96S
6HR MIN TEMP:  74; 6HR MAX TEMP:  79; 6HR PCP: TRACE;


$$
MOZ032>034-039>042-045>050-055>058-069>072-030100-
...CENTRAL MISSOURI...

CITY           SKY/WX    TMP DP  RH WIND       PRES   REMARKS
COLUMBIA       PTSUNNY   74  47  38 E5        29.95F
6HR MIN TEMP:  73; 6HR MAX TEMP:  77;

JEFFERSON CITY PTSUNNY   76  45  33 SE8       29.94F
6HR MIN TEMP:  74; 6HR MAX TEMP:  79;

ROLLA          PTSUNNY   70  48  45 S7        29.97S
6HR MIN TEMP:  70; 6HR MAX TEMP:  78;

SEDALIA        CLOUDY    72  52  49 S7        29.96S
6HR MIN TEMP:  72; 6HR MAX TEMP:  77;

WHITEMAN AFB   MOSUNNY   73  54  51 S6        29.93F
WARRENSBURG    MOSUNNY   70  54  56 SE5       29.93S
OSAGE BEACH    CLOUDY    75  45  33 S6        29.96F

$$
MOZ051-052-059>065-030100-
...EAST CENTRAL MISSOURI...

CITY           SKY/WX    TMP DP  RH WIND       PRES   REMARKS
ST LOUIS INTL  MOCLDY    74  45  35 E7        29.98F
6HR MIN TEMP:  74; 6HR MAX TEMP:  80;

SPIRIT OF STL  MOCLDY    73  55  53 CALM      29.96F
6HR MIN TEMP:  73; 6HR MAX TEMP:  79;

ST CHARLES     MOCLDY    75  39  27 SE6       29.97S
6HR MIN TEMP:  74; 6HR MAX TEMP:  80;


$$
MOZ072>076-082>087-097>100-106>115-030100-
...SOUTH CENTRAL AND SOUTHEAST MISSOURI...

CITY           SKY/WX    TMP DP  RH WIND       PRES   REMARKS
CAPE GIRARDEAU CLEAR     73  43  33 SW6       30.02S
6HR MIN TEMP:  71; 6HR MAX TEMP:  76;

FARMINGTON     CLEAR     72  43  35 S7        30.04F
6HR MIN TEMP:  72; 6HR MAX TEMP:  75;

POPLAR BLUFF   CLEAR     73  45  36 S5        30.01S
6HR MIN TEMP:  72; 6HR MAX TEMP:  76;

WEST PLAINS    MOSUNNY   72  41  32 S3        30.02S
6HR MIN TEMP:  71; 6HR MAX TEMP:  74;


$$



USA.gov is the U.S. government's official web portal to all federal, state and local government web resources and services.